Date,TemperatureHighF,TemperatureAvgF,TemperatureLowF,DewpointHighF,DewpointAvgF,DewpointLowF,HumidityHigh,HumidityAvg,HumidityLow,PressureMaxIn,PressureMinIn,WindSpeedMaxMPH,WindSpeedAvgMPH,GustSpeedMaxMPH,PrecipitationSumIn
2013-10-1,82,70,59,65,61,56,95,76,51,29.94,29.84,17,6,22,0.00
2013-10-2,83,72,63,63,57,44,80,61,35,30.04,29.89,12,4,18,0.00
2013-10-3,79,72,67,70,67,62,96,85,70,29.89,29.76,13,4,19,0.01
2013-10-4,78,71,66,70,66,63,96,86,72,29.94,29.81,12,4,22,0.24
2013-10-5,75,68,49,70,62,43,94,82,67,29.84,29.75,14,6,20,0.02
2013-10-6,51,46,42,44,41,38,95,82,64,29.82,29.72,13,5,18,0.00
2013-10-7,72,57,41,49,44,40,97,68,34,30.06,29.81,16,5,23,0.01
2013-10-8,78,63,50,50,47,44,85,59,30,30.14,30.05,15,4,19,0.00
2013-10-9,74,62,52,50,47,41,85,59,31,30.17,30.07,8,3,12,0.00
2013-10-10,76,63,50,56,51,45,84,66,45,30.13,29.97,8,3,13,0.00
2013-10-11,77,66,56,59,56,53,92,70,46,29.98,29.83,19,6,27,0.00
2013-10-12,69,62,47,58,48,37,87,61,36,30.19,29.84,20,6,27,0.00
2013-10-13,64,53,42,41,35,31,77,55,30,30.41,30.19,9,3,14,0.00
2013-10-14,64,53,41,44,40,34,83,62,43,30.39,30.04,16,5,19,0.00
2013-10-15,64,57,50,60,49,40,94,75,56,30.03,29.77,17,9,25,0.04
2013-10-16,51,49,47,46,44,43,94,83,76,29.97,29.86,19,9,24,0.00
2013-10-17,60,51,46,45,40,35,93,71,40,29.95,29.82,17,5,23,0.01
2013-10-18,50,45,40,41,38,36,92,75,62,29.99,29.85,16,7,22,0.00
2013-10-19,53,44,35,39,35,31,87,73,46,29.95,29.79,21,6,32,0.00
2013-10-20,60,48,37,46,40,33,90,74,54,29.86,29.72,14,4,22,0.00
2013-10-21,49,40,32,42,29,23,84,65,44,30.01,29.83,27,8,28,0.00
2013-10-22,37,34,30,35,31,25,95,89,76,30.02,29.92,10,2,13,0.27
2013-10-23,42,36,29,35,30,27,91,81,55,30.08,30.01,14,6,19,0.02
2013-10-24,40,35,28,33,24,22,87,67,55,30.37,30.09,20,6,20,0.00
2013-10-25,53,39,26,33,26,23,88,64,32,30.43,30.06,18,6,25,0.00
2013-10-26,53,45,35,35,30,25,74,57,35,30.13,29.91,22,9,28,0.00
2013-10-27,57,42,28,34,29,25,87,64,37,30.10,29.94,14,4,19,0.00
2013-10-28,58,45,35,42,36,30,84,71,54,30.33,30.04,15,7,22,0.00
2013-10-29,56,45,36,45,38,32,91,76,56,30.33,30.09,14,5,16,0.00
2013-10-30,60,55,50,59,54,45,98,96,83,30.09,29.70,15,5,29,0.91
2013-10-31,62,54,43,62,52,41,99,95,90,29.67,29.34,20,9,24,0.03